User: anonymous   Login
Location: Unspecified
(0.0000°N, 0.0000°E)
Time: 22:41:07
(UTC+00:00)
Language:

UNISAT 6 - Orbit

View from above orbital plane
View from above orbital plane
View from above satellite
View from above satellite

Ground track
Ground track

The orbit data is extracted from the following two-line orbital elements,

1 40012U 14033C   23083.48468063  .00006396  00000-0  90784-3 0  9998
2 40012  97.6678 261.7587 0055437 332.3039  27.5222 14.76220937471277
Epoch (UTC): 24 March 2023 11:37:56
Eccentricity: 0.0055437
inclination: 97.6678°
perigee height: 602 km
apogee height: 680 km
right ascension of ascending node: 261.7587°
argument of perigee: 332.3039°
revolutions per day: 14.76220937
mean anomaly at epoch: 27.5222°
orbit number at epoch: 47127

The dashed part of the orbit path shows where the satellite is in the earth's shadow,  

DLR